Middlebury State AP, Middlebu, VT

3:39 PM EST on December 09, 2019 (GMT -0500)
Middlebury State AP, Middlebu

Weather History for K6B0 - November, 2019

Change the Weather History Date:

Tuesday, November 19, 2019

  Actual Average (WUND) Record (WUND)
Temperature  
Mean Temperature 30 °F -  
Max Temperature 32 °F - - (-1)
Min Temperature 28 °F - - (-1)
Degree Days  
Heating Degree Days 35    
Moisture  
Dew Point 30 °F    
Average Humidity 96    
Maximum Humidity 99    
Minimum Humidity 87    
Precipitation  
Precipitation 0.37 in - - ()
Sea Level Pressure  
Sea Level Pressure 29.80 in    
Wind  
Wind Speed 2 mph ()    
Max Wind Speed 6 mph    
Max Gust Speed -    
Visibility 3.4 miles    
Events Snow    
Averages and records for this station are not official NWS values.
T = Trace of Precipitation, MM = Missing Value Source: Averaged Metar Reports

Daily Weather History Graph

Daily Weather History Graph

Search for Another Location

Airport or City:

Astronomy

Nov. 19, 2019 Rise Set
Actual Time 6:52 AM EST 4:22 PM EST
Civil Twilight 6:20 AM EST 4:54 PM EST
Nautical Twilight 5:45 AM EST 5:29 PM EST
Astronomical Twilight 5:11 AM EST 6:03 PM EST
Moon 11:17 PM EST (11/19) 12:59 PM EST (11/19)
Length of Visible Light 10h 33m
Length of Day
9h 30m
Waning Gibbous, 52% of the Moon is Illuminated
Nov 19
Waning Gibbous
Nov 19
Last Quarter
Nov 26
New
Dec 4
First Quarter
Dec 12
Full

Hourly Weather History & Observations

Time (EST) Temp. Windchill Dew Point Humidity Pressure Visibility Wind Dir Wind Speed Gust Speed Precip Events Conditions
12:15 AM 30.2 °F 24.3 °F 29.1 °F 96% 29.72 in 7.0 mi North 5.8 mph - N/A   Overcast
12:35 AM 30.0 °F 24.1 °F 28.4 °F 94% 29.71 in 10.0 mi North 5.8 mph - N/A   Overcast
12:36 AM 30.0 °F 25.2 °F 28.4 °F 94% 29.71 in 10.0 mi North 4.6 mph - N/A   Overcast
12:55 AM 30.0 °F 25.2 °F 28.4 °F 94% 29.71 in 7.0 mi North 4.6 mph - N/A   Overcast
12:59 AM 30.0 °F 24.1 °F 28.4 °F 94% 29.71 in 7.0 mi North 5.8 mph - N/A   Overcast
1:17 AM 30.0 °F 26.5 °F 28.4 °F 94% 29.71 in 10.0 mi North 3.5 mph - N/A   Overcast
1:35 AM 29.8 °F 24.9 °F 28.4 °F 94% 29.71 in 7.0 mi North 4.6 mph - N/A   Overcast
1:55 AM 30.0 °F 26.5 °F 28.2 °F 93% 29.72 in 10.0 mi NNW 3.5 mph - N/A   Overcast
1:56 AM 30.0 °F 26.5 °F 28.2 °F 93% 29.72 in 10.0 mi NNW 3.5 mph - N/A   Overcast
2:15 AM 30.0 °F 25.2 °F 27.5 °F 90% 29.72 in 10.0 mi North 4.6 mph - N/A   Overcast
2:38 AM 30.0 °F 25.2 °F 27.0 °F 88% 29.73 in 10.0 mi NNW 4.6 mph - N/A   Overcast
2:56 AM 30.0 °F 25.2 °F 26.6 °F 87% 29.73 in 10.0 mi NNW 4.6 mph - N/A   Overcast
3:15 AM 30.0 °F 25.2 °F 26.6 °F 87% 29.73 in 10.0 mi North 4.6 mph - N/A   Overcast
3:35 AM 29.8 °F 26.3 °F 27.0 °F 89% 29.73 in 4.0 mi NNW 3.5 mph - 0.01 in Snow Light Snow
3:36 AM 29.8 °F 26.3 °F 27.0 °F 89% 29.73 in 4.0 mi North 3.5 mph - 0.01 in Snow Light Snow
3:55 AM 29.7 °F 24.7 °F 27.3 °F 91% 29.73 in 5.0 mi NNW 4.6 mph - 0.03 in   Overcast
3:59 AM 29.3 °F 24.3 °F 27.1 °F 92% 29.73 in 5.0 mi NNW 4.6 mph - 0.03 in   Overcast
4:18 AM 29.3 °F - 27.5 °F 93% 29.74 in 3.0 mi Calm Calm - 0.01 in   Overcast
4:35 AM 29.3 °F - 27.9 °F 94% 29.74 in 2.5 mi Calm Calm - 0.02 in   Overcast
4:55 AM 29.1 °F 25.4 °F 28.0 °F 96% 29.74 in 2.5 mi NNW 3.5 mph - 0.04 in   Overcast
5:15 AM 28.9 °F 23.9 °F 27.9 °F 96% 29.74 in 4.0 mi NNW 4.6 mph - N/A   Overcast
5:16 AM 28.9 °F 25.2 °F 27.9 °F 96% 29.74 in 4.0 mi NNW 3.5 mph - N/A   Overcast
5:38 AM 29.1 °F 25.4 °F 28.0 °F 96% 29.74 in 3.0 mi North 3.5 mph - 0.02 in   Overcast
5:56 AM 29.3 °F 25.6 °F 28.0 °F 95% 29.74 in 4.0 mi NNW 3.5 mph - 0.03 in   Overcast
6:16 AM 29.3 °F - 28.4 °F 96% 29.74 in 4.0 mi Calm Calm - 0.01 in   Overcast
6:35 AM 29.5 °F - 28.4 °F 96% 29.74 in 4.0 mi Calm Calm - 0.01 in   Overcast
6:55 AM 29.7 °F - 28.8 °F 96% 29.74 in 4.0 mi Calm Calm - 0.02 in   Overcast
6:59 AM 29.7 °F 26.1 °F 28.8 °F 96% 29.74 in 5.0 mi NNW 3.5 mph - 0.02 in   Overcast
7:18 AM 29.7 °F - 28.8 °F 96% 29.74 in 4.0 mi Calm Calm - N/A   Overcast
7:36 AM 29.8 °F - 28.8 °F 96% 29.75 in 3.0 mi Calm Calm - 0.01 in   Overcast
7:55 AM 30.0 °F - 28.9 °F 96% 29.75 in 3.0 mi Calm Calm - 0.03 in   Overcast
7:56 AM 30.0 °F - 28.9 °F 96% 29.75 in 3.0 mi Calm Calm - 0.03 in   Overcast
8:15 AM 30.2 °F 26.7 °F 29.1 °F 96% 29.75 in 2.5 mi NNW 3.5 mph - 0.02 in Snow Light Snow
8:16 AM 30.2 °F - 29.1 °F 96% 29.75 in 2.5 mi Calm Calm - 0.02 in Snow Light Snow
8:38 AM 30.4 °F 26.9 °F 29.3 °F 96% 29.75 in 3.0 mi NNW 3.5 mph - 0.04 in   Overcast
8:57 AM 30.6 °F 27.1 °F 29.3 °F 95% 29.75 in 2.5 mi NNW 3.5 mph - 0.05 in   Overcast
9:16 AM 30.6 °F 27.1 °F 29.3 °F 95% 29.75 in 3.0 mi NNW 3.5 mph - 0.02 in   Overcast
9:35 AM 30.7 °F - 29.7 °F 96% 29.76 in 3.0 mi Calm Calm - 0.03 in   Overcast
9:36 AM 30.7 °F - 29.7 °F 96% 29.76 in 3.0 mi Calm Calm - 0.03 in   Overcast
9:55 AM 31.1 °F - 29.8 °F 95% 29.76 in 3.0 mi Calm Calm - 0.04 in   Overcast
9:59 AM 31.1 °F - 29.8 °F 95% 29.76 in 3.0 mi Calm Calm - 0.04 in   Overcast
10:17 AM 31.1 °F - 29.8 °F 95% 29.77 in 2.5 mi Calm Calm - 0.02 in Snow Light Snow
10:35 AM 31.1 °F - 30.0 °F 96% 29.77 in 3.0 mi Calm Calm - 0.03 in   Overcast
10:55 AM 31.1 °F - 30.2 °F 96% 29.77 in 2.5 mi Calm Calm - 0.05 in Snow Light Snow
10:56 AM 31.1 °F - 30.2 °F 96% 29.77 in 2.0 mi Calm Calm - 0.05 in Snow Light Snow
11:15 AM 31.1 °F - 30.2 °F 96% 29.76 in 1.5 mi Calm Calm - 0.02 in Snow Light Snow
11:16 AM 31.1 °F - 30.2 °F 96% 29.76 in 1.5 mi Calm Calm - 0.02 in Snow Light Snow
11:56 AM 31.5 °F - 30.6 °F 96% 29.77 in 1.2 mi Calm Calm - 0.06 in Snow Light Snow
12:16 PM 31.6 °F - 30.7 °F 96% 29.77 in 1.0 mi Calm Calm - 0.01 in Snow Light Snow
12:35 PM 31.6 °F - 30.9 °F 97% 29.77 in 1.2 mi Calm Calm - 0.02 in Snow Light Snow
12:36 PM 31.6 °F - 30.9 °F 97% 29.77 in 1.2 mi Calm Calm - 0.02 in Snow Light Snow
12:55 PM 31.6 °F - 30.7 °F 96% 29.77 in 1.5 mi Calm Calm - 0.02 in Snow Light Snow
12:59 PM 31.6 °F - 30.7 °F 96% 29.77 in 1.8 mi Calm Calm - 0.02 in Snow Light Snow
1:18 PM 31.8 °F - 30.9 °F 96% 29.78 in 1.8 mi Calm Calm - N/A Snow Light Snow
1:36 PM 31.6 °F - 30.7 °F 96% 29.78 in 1.5 mi Calm Calm - N/A Snow Light Snow
1:55 PM 31.8 °F - 30.7 °F 96% 29.78 in 2.0 mi Calm Calm - N/A Snow Light Snow
1:56 PM 31.8 °F - 30.7 °F 96% 29.78 in 2.0 mi Calm Calm - N/A Snow Light Snow
2:15 PM 32.0 °F - 31.1 °F 96% 29.79 in 2.0 mi Calm Calm - N/A   Overcast
2:39 PM 32.0 °F - 30.9 °F 96% 29.80 in 1.8 mi Calm Calm - N/A   Overcast
2:56 PM 31.8 °F - 31.1 °F 97% 29.80 in 1.5 mi Calm Calm - N/A   Overcast
3:15 PM 31.8 °F - 31.1 °F 97% 29.80 in 1.2 mi Calm Calm - N/A Snow Light Snow
3:35 PM 31.6 °F 28.3 °F 31.1 °F 98% 29.81 in 1.2 mi NNW 3.5 mph - N/A Snow Light Snow
3:36 PM 31.6 °F 28.3 °F 31.1 °F 98% 29.81 in 1.2 mi North 3.5 mph - N/A Snow Light Snow
3:59 PM 31.6 °F - 31.1 °F 98% 29.81 in 1.5 mi Calm Calm - N/A   Overcast
4:16 PM 31.6 °F - 31.1 °F 98% 29.81 in 1.2 mi Calm Calm - N/A   Overcast
4:35 PM 31.8 °F - 31.1 °F 97% 29.82 in 2.0 mi Calm Calm - N/A   Overcast
4:55 PM 31.8 °F - 31.1 °F 97% 29.84 in 2.5 mi Calm Calm - N/A   Overcast
4:56 PM 31.8 °F - 31.1 °F 97% 29.84 in 2.5 mi Calm Calm - N/A   Overcast
5:15 PM 31.8 °F - 31.5 °F 99% 29.84 in 2.0 mi Calm Calm - N/A   Overcast
5:19 PM 31.8 °F - 31.5 °F 99% 29.84 in 2.0 mi Calm Calm - N/A   Overcast
5:37 PM 31.8 °F - 31.5 °F 99% 29.86 in 2.5 mi Calm Calm - N/A   Overcast
5:56 PM 31.6 °F - 31.3 °F 99% 29.87 in 2.5 mi Calm Calm - N/A   Overcast
6:15 PM 31.6 °F 28.3 °F 31.1 °F 98% 29.87 in 2.5 mi North 3.5 mph - N/A   Overcast
6:16 PM 31.6 °F 28.3 °F 31.1 °F 98% 29.87 in 2.5 mi North 3.5 mph - N/A   Overcast
6:39 PM 31.6 °F - 31.1 °F 98% 29.88 in 2.5 mi Calm Calm - N/A   Overcast
6:57 PM 31.6 °F - 31.1 °F 98% 29.89 in 2.5 mi Calm Calm - N/A   Overcast
7:15 PM 31.8 °F - 31.1 °F 97% 29.89 in 2.5 mi Calm Calm - N/A   Overcast
7:35 PM 31.6 °F - 31.1 °F 98% 29.89 in 2.0 mi Calm Calm - N/A   Overcast
7:36 PM 31.6 °F 28.3 °F 31.1 °F 98% 29.89 in 2.0 mi North 3.5 mph - N/A   Overcast
7:55 PM 31.6 °F - 31.1 °F 98% 29.89 in 1.8 mi Calm Calm - N/A   Overcast
8:18 PM 31.6 °F - 31.1 °F 98% 29.89 in 1.8 mi Calm Calm - N/A   Overcast
8:36 PM 31.6 °F - 31.1 °F 98% 29.89 in 2.0 mi Calm Calm - N/A   Overcast
8:55 PM 31.6 °F - 31.1 °F 98% 29.89 in 1.8 mi Calm Calm - N/A   Overcast
8:56 PM 31.6 °F - 31.1 °F 98% 29.89 in 1.8 mi Calm Calm - N/A   Overcast
9:15 PM 31.6 °F - 31.1 °F 98% 29.90 in 1.5 mi Calm Calm - N/A   Overcast
9:35 PM 31.5 °F - 31.1 °F 99% 29.90 in 2.0 mi Calm Calm - N/A   Overcast
9:39 PM 31.5 °F - 31.1 °F 99% 29.90 in 2.0 mi Calm Calm - N/A   Overcast
9:57 PM 31.6 °F - 31.1 °F 98% 29.90 in 2.0 mi Calm Calm - N/A   Overcast
10:15 PM 31.5 °F - 31.1 °F 99% 29.90 in 2.0 mi Calm Calm - N/A   Overcast
10:16 PM 31.5 °F - 31.1 °F 99% 29.90 in 2.0 mi Calm Calm - N/A   Overcast
10:35 PM 31.3 °F - 30.9 °F 99% 29.90 in 3.0 mi Calm Calm - N/A   Overcast
10:36 PM 31.1 °F - 30.9 °F 99% 29.90 in 3.0 mi Calm Calm - N/A   Overcast
10:55 PM 31.1 °F 27.7 °F 30.9 °F 99% 29.90 in 2.5 mi North 3.5 mph - N/A   Overcast
10:59 PM 31.1 °F - 30.9 °F 99% 29.90 in 2.5 mi Calm Calm - N/A   Overcast
11:17 PM 31.5 °F - 31.1 °F 99% 29.90 in 2.0 mi Calm Calm - N/A   Overcast
11:36 PM 31.1 °F 26.4 °F 30.7 °F 99% 29.89 in 2.5 mi North 4.6 mph - N/A   Overcast
11:55 PM 31.1 °F 27.7 °F 30.7 °F 99% 29.89 in 2.5 mi North 3.5 mph - N/A   Overcast